[Iaude] MPEC B133: 2019 BQ3 [a=2.42,e=0.48,i=16.9,H=21.6]

mpec at mpcdb1.cfa.harvard.edu mpec at mpcdb1.cfa.harvard.edu
Tue Jan 29 06:49:16 EST 2019


M.P.E.C. 2019-B133                               Issued 2019 Jan. 29, 11:46 UT
 
     The Minor Planet Electronic Circulars contain information on unusual
         minor planets and routine data on comets.  They are published
    on behalf of Division F of the International Astronomical Union by the
          Minor Planet Center, Smithsonian Astrophysical Observatory,
                          Cambridge, MA 02138, U.S.A.

             Prepared using the Tamkin Foundation Computer Network

                              MPC at CFA.HARVARD.EDU
            URL https://www.minorplanetcenter.net/    ISSN 1523-6714


                                   2019 BQ3
 
Observations:
     K19B03Q* C2019 01 27.19779 07 41 57.29 +09 05 25.9          19.8 GVEB133G96
     K19B03Q  C2019 01 27.20338 07 41 57.63 +09 05 46.6          20.0 GVEB133G96
     K19B03Q  C2019 01 27.20897 07 41 57.97 +09 06 06.3                VEB133G96
     K19B03Q  C2019 01 27.21457 07 41 58.24 +09 06 27.8          19.5 GVEB133G96
     K19B03Q HC2019 01 27.26553 07 42 01.29 +09 09 35.1          20.0 RoEB133691
     K19B03Q HC2019 01 27.27448 07 42 01.76 +09 10 08.7          19.8 RoEB133691
     K19B03Q  C2019 01 27.42040 07 42 10.39 +09 19 02.3                VEB133G96
     K19B03Q  C2019 01 27.42313 07 42 10.55 +09 19 11.7                VEB133G96
     K19B03Q  C2019 01 27.42481 07 42 10.61 +09 19 17.9                VEB133G96
     K19B03Q  C2019 01 27.42588 07 42 10.72 +09 19 21.5                VEB133G96
     K19B03Q KC2019 01 27.92376007 42 46.68 +09 49 41.6          20.1 GVEB133J95
     K19B03Q KC2019 01 27.92781607 42 46.91 +09 49 57.4          19.5 GVEB133J95
     K19B03Q KC2019 01 27.93196307 42 47.18 +09 50 11.9          20.1 GVEB133J95
     K19B03Q  C2019 01 28.40567 07 43 18.57 +10 19 12.2                VEB133I52
     K19B03Q  C2019 01 28.40626 07 43 18.65 +10 19 13.8                VEB133I52
     K19B03Q  C2019 01 28.41345 07 43 19.12 +10 19 40.8          20.3 GVEB133I52
     K19B03Q  C2019 01 28.42064 07 43 19.48 +10 20 07.2                VEB133I52
     K19B03Q KC2019 01 28.79435 07 43 48.16 +10 42 47.3          20.1 GVEB133587
     K19B03Q KC2019 01 28.79646 07 43 48.29 +10 42 54.8                VEB133587
     K19B03Q KC2019 01 28.79856 07 43 48.47 +10 43 02.0                VEB133587
     K19B03Q KC2019 01 29.00120 07 44 01.26 +10 55 23.1                VEB133204
     K19B03Q KC2019 01 29.00943 07 44 01.73 +10 55 52.9                VEB133204
     K19B03Q KC2019 01 29.01751 07 44 02.26 +10 56 22.4          20.4 GVEB133204
     K19B03Q KC2019 01 29.17544 07 44 14.65 +11 06 00.9          19.8 GUEB133H36
     K19B03Q KC2019 01 29.18136 07 44 15.02 +11 06 22.0          20.1 GUEB133H36
     K19B03Q KC2019 01 29.18729 07 44 15.39 +11 06 44.8          19.9 GUEB133H36
 
Observer details:
204 Schiaparelli Observatory.  Observer L. Buzzi.  0.84-m f/3.5 reflector +
    CCD.
587 Sormano.  Observers F. Manca, P. Sicoli, A. Testa.  Measurer P. Sicoli.
    0.5-m f/6.8 reflector + CCD.
691 Steward Observatory, Kitt Peak-Spacewatch.  Observer R. A. Mastaler.
    0.9-m f/3 reflector + CCD.
G96 Mt. Lemmon Survey.  Observer D. C. Fuls.  Measurers B. M. Africano,
    E. J. Christensen, G. A. Farneth, D. C. Fuls, A. R. Gibbs, A. D. Grauer,
    H. Groeller, R. A. Kowalski, S. M. Larson, G. J. Leonard, T. A. Pruyne,
    R. L. Seaman, F. C. Shelly.  1.5-m reflector + 10K CCD.
H36 Sandlot Observatory, Scranton.  Observer G. Hug.  0.56-m reflector + CCD.
I52 Steward Observatory, Mt. Lemmon Station.  Observer H. Groeller.
    Measurers B. M. Africano, E. J. Christensen, G. A. Farneth, D. C. Fuls,
    A. R. Gibbs, A. D. Grauer, H. Groeller, R. A. Kowalski, S. M. Larson,
    G. J. Leonard, T. A. Pruyne, R. L. Seaman, F. C. Shelly.  1.0-m reflector
    + CCD.
J95 Great Shefford.  Observer P. Birtwhistle.  0.41-m f/6.3
    Schmidt-Cassegrain + CCD.
 
Orbital elements:
2019 BQ3                                                 Earth MOID = 0.2987 AU
Epoch 2019 Apr. 27.0 TT = JDT 2458600.5                 MPC
M  27.64666              (2000.0)            P               Q
n   0.26151490     Peri.  336.89076     -0.36183531     -0.90806799
a   2.4218009      Node   133.56717     +0.89431455     -0.40199203
e   0.4768288      Incl.   16.92380     +0.26320465     +0.11753691
P   3.77           H   21.6           G   0.15           U   8
Residuals in seconds of arc
190127 G96  0.0   0.0     190127 G96  0.0   0.7-    190128 587  0.6-  0.1-
190127 G96  0.1+  0.1+    190127 J95  0.2+  0.1-    190128 587  0.1+  0.6-
190127 G96  0.3+  0.8-    190127 J95  0.1-  0.8+    190129 204  0.4+  0.2+
190127 G96  0.5-  0.1+    190127 J95  0.1+  0.1+    190129 204  0.3-  0.1+
190127 691  0.5+  0.2-    190128 I52  0.5-  0.7-    190129 204  0.0   0.2+
190127 691  0.2-  0.5+    190128 I52  0.2+  1.3-    190129 H36  0.3+  0.1+
190127 G96  0.1+  0.1+    190128 I52  0.4+  0.4-    190129 H36  0.3+  0.4-
190127 G96  0.0   0.5-    190128 I52  1.0-  0.2-    190129 H36  0.4+  0.7+
190127 G96  0.6-  0.4-    190128 587  0.5-  0.2+

Ephemeris:
2019 BQ3                 a,e,i = 2.42, 0.48, 17                  q = 1.2670
Date    TT    R. A. (2000) Decl.     Delta      r     Elong.  Phase     V
2018 12 30    07 16 41.7 -14 01 16   0.3476  1.2736   141.4    28.8    21.1
...
2019 01 14    07 28 53.5 -03 46 37   0.3065  1.2673   154.6    19.4    20.5
...
2019 01 22    07 36 22.1 +03 48 38   0.2999  1.2720   161.5    14.2    20.3
...
2019 01 28    07 42 51.5 +09 54 37   0.3036  1.2792   163.9    12.4    20.3
2019 01 29    07 44 01.6 +10 55 32   0.3050  1.2807   163.9    12.3    20.3
2019 01 30    07 45 13.2 +11 56 06   0.3066  1.2822   163.8    12.4    20.3
...
2019 02 05    07 52 58.8 +17 45 23   0.3208  1.2934   161.0    14.4    20.5
...
2019 02 13    08 05 00.0 +24 28 27   0.3514  1.3126   154.2    19.1    20.9
...
2019 02 28    08 32 02.9 +32 50 59   0.4393  1.3610   141.2    27.1    21.7

A. U. Tomatic                (C) Copyright 2019 MPC           M.P.E.C. 2019-B133



More information about the Iaude mailing list